This demonstration page uses our WeatherBlox Daily Observations layout. Learn more.

Hourly Observations for August 28, 2017

Temp ( °F °C ) Dew Point ( °F °C ) Humidity (%) Winds ( mph kmh ) Pressure ( in mb ) Visibility ( mi km ) Precip ( " mm )
12:15 am 00:15 Clear 60 15.6 58 14.2 91 91 Calm 30.15 1021 10 16.09344 0 0
12:35 am 00:35 Clear 59 14.9 56 13.6 92 92 WNW 5 7 30.18 1022 10 16.09344 0 0
12:55 am 00:55 Clear 59 14.9 57 13.7 93 93 WNW 5 7 30.18 1022 10 16.09344 0 0
1:15 am 01:15 Clear 59 14.9 57 13.8 93 93 NNW 5 7 30.18 1022 7 11.265408 0 0
1:35 am 01:35 Clear 58 14.7 56 13.6 93 93 Calm 30.18 1022 7 11.265408 0 0
1:55 am 01:55 Clear 58 14.7 57 13.7 94 94 NW 3 6 30.18 1022 7 11.265408 0 0
2:15 am 02:15 Clear 57 14 55 13 94 94 Calm 30.18 1022 7 11.265408 0 0
2:35 am 02:35 Clear 57 13.8 55 12.7 93 93 Calm 30.18 1022 7 11.265408 0 0
2:55 am 02:55 Clear 57 13.7 55 12.7 94 94 Calm 30.18 1022 10 16.09344 0 0
3:15 am 03:15 Clear 55 13 54 12 94 94 W 6 9 30.18 1022 7 11.265408 0 0
3:35 am 03:35 Clear 56 13.1 54 12.1 94 94 WNW 5 7 30.18 1022 7 11.265408 0 0
3:55 am 03:55 Clear 55 13 54 12 94 94 WNW 5 7 30.18 1022 7 11.265408 0 0
4:15 am 04:15 Clear 55 13 54 12.1 94 94 WNW 6 9 30.18 1022 7 11.265408 0 0
4:35 am 04:35 Clear 55 13 54 12 94 94 WNW 6 9 30.18 1022 7 11.265408 0 0
4:55 am 04:55 Clear 55 13 54 12 94 94 W 6 9 30.18 1022 7 11.265408 0 0
5:15 am 05:15 Clear 55 13 54 12 94 94 WNW 5 7 30.18 1022 7 11.265408 0 0
5:35 am 05:35 Clear 55 12.7 53 11.7 94 94 WNW 5 7 30.18 1022 7 11.265408 0 0
5:55 am 05:55 Clear 55 12.7 53 11.7 94 94 WNW 3 6 30.18 1022 7 11.265408 0 0
6:15 am 06:15 Clear 54 12.3 52 11.3 94 94 W 6 9 30.18 1022 7 11.265408 0 0
6:35 am 06:35 Clear 54 12.3 53 11.5 95 95 W 5 7 30.18 1022 7 11.265408 0 0
6:55 am 06:55 Clear 54 12.1 52 11.2 94 94 WNW 3 6 30.18 1022 7 11.265408 0 0
7:15 am 07:15 Sunny with Mist and Fog 54 12 52 11.1 94 94 Calm 30.18 1022 5 8.04672 0 0
7:35 am 07:35 Sunny with Mist and Fog 54 12.1 52 11.2 94 94 WNW 3 6 30.18 1022 5 8.04672 0 0
7:55 am 07:55 Sunny with Mist and Fog 56 13.1 54 12.3 95 95 Calm 30.18 1022 5 8.04672 0 0
8:15 am 08:15 Sunny 57 14 56 13.1 94 94 WNW 3 6 30.18 1022 7 11.265408 0 0
8:35 am 08:35 Sunny 59 14.8 56 13.6 93 93 WNW 3 6 30.18 1022 10 16.09344 0 0
8:55 am 08:55 Sunny 61 16 58 14.5 91 91 Calm 30.15 1021 7 11.265408 0 0
9:15 am 09:15 Sunny 63 17.3 60 15.6 90 90 Calm 30.15 1021 7 11.265408 0 0
9:35 am 09:35 Sunny 65 18.5 61 16.2 87 87 Calm 30.12 1020 10 16.09344 0 0
9:55 am 09:55 Sunny 67 19.5 62 16.7 84 84 N 3 6 30.12 1020 10 16.09344 0 0
10:15 am 10:15 Sunny 69 20.6 63 17.4 82 82 N 3 6 30.12 1020 10 16.09344 0 0
10:35 am 10:35 Sunny 72 22 65 18.1 79 79 N 3 6 30.09 1019 10 16.09344 0 0
10:55 am 10:55 Sunny 73 23 65 18.5 76 76 NW 3 6 30.09 1019 10 16.09344 0 0
11:15 am 11:15 Sunny 75 23.7 66 18.8 74 74 NE 5 7 30.09 1019 10 16.09344 0 0
11:35 am 11:35 Sunny 75 24 65 18.4 71 71 Calm 30.09 1019 10 16.09344 0 0
11:55 am 11:55 Sunny 76 24.3 63 17.2 65 65 Calm 30.09 1019 10 16.09344 0 0
12:15 pm 12:15 Sunny 77 25 62 16.8 60 60 N 3 6 30.03 1017 10 16.09344 0 0
12:35 pm 12:35 Sunny 78 25.5 62 16.9 59 59 Calm 30.03 1017 10 16.09344 0 0
12:55 pm 12:55 Sunny 79 26.2 62 16.6 56 56 N 3 6 30.03 1017 10 16.09344 0 0
1:15 pm 13:15 Sunny 80 26.5 59 15.2 50 50 N 3 6 30.03 1017 10 16.09344 0 0
1:35 pm 13:35 Sunny 80 26.5 60 15.3 50 50 N 3 6 30.03 1017 10 16.09344 0 0
1:55 pm 13:55 Sunny 81 27.1 59 14.8 47 47 ENE 6 9 30.03 1017 10 16.09344 0 0
2:15 pm 14:15 Sunny 80 26.9 61 16.1 52 52 E 8 13 30 1016 10 16.09344 0 0
2:35 pm 14:35 Sunny 81 27 60 15.6 50 50 E 8 13 30 1016 10 16.09344 0 0
2:55 pm 14:55 Sunny 82 27.5 60 15.5 48 48 E 7 11 30 1016 10 16.09344 0 0
3:15 pm 15:15 Sunny 81 27.4 61 16.2 50 50 ENE 6 9 30 1016 10 16.09344 0 0
3:35 pm 15:35 Sunny 82 27.6 59 15 46 46 ESE 6 9 30 1016 10 16.09344 0 0
3:55 pm 15:55 Sunny 82 27.7 59 15.1 46 46 E 8 13 30 1016 10 16.09344 0 0
4:15 pm 16:15 Sunny 82 27.5 59 14.9 46 46 E 7 11 29.97 1015 10 16.09344 0 0
4:35 pm 16:35 Sunny 81 27.2 60 15.4 49 49 E 7 11 29.97 1015 10 16.09344 0 0
4:55 pm 16:55 Sunny 81 27.2 60 15.6 49 49 E 7 11 29.97 1015 10 16.09344 0 0
5:15 pm 17:15 Sunny 80 26.9 61 16.3 52 52 ESE 8 13 29.97 1015 10 16.09344 0 0
5:35 pm 17:35 Sunny 80 26.9 62 16.6 53 53 E 6 9 29.97 1015 10 16.09344 0 0
5:55 pm 17:55 Sunny 80 26.5 62 16.4 54 54 ESE 10 17 29.97 1015 10 16.09344 0 0
6:15 pm 18:15 Sunny 79 26.1 60 15.7 53 53 ESE 7 11 29.97 1015 10 16.09344 0 0
6:35 pm 18:35 Sunny 78 25.8 59 14.9 51 51 E 9 15 29.97 1015 10 16.09344 0 0
6:55 pm 18:55 Sunny 78 25.6 59 15 52 52 SE 9 15 29.97 1015 10 16.09344 0 0
7:15 pm 19:15 Sunny 77 25 59 14.9 54 54 ESE 8 13 29.97 1015 10 16.09344 0 0
7:35 pm 19:35 Sunny 76 24.2 59 14.8 56 56 ESE 8 13 30 1016 10 16.09344 0 0
7:55 pm 19:55 Sunny 74 23.4 59 15 59 59 ESE 8 13 30 1016 10 16.09344 0 0
8:15 pm 20:15 Sunny 73 22.5 58 14.7 61 61 ESE 6 9 30 1016 10 16.09344 0 0
8:35 pm 20:35 Clear 71 21.9 58 14.4 63 63 SSE 6 9 30 1016 10 16.09344 0 0
8:55 pm 20:55 Clear 69 20.6 59 14.9 70 70 SE 6 9 30.03 1017 10 16.09344 0 0
9:15 pm 21:15 Clear 68 20 58 14.7 72 72 ESE 5 7 30.03 1017 10 16.09344 0 0
9:35 pm 21:35 Clear 68 20 58 14.6 71 71 SE 5 7 30.06 1018 10 16.09344 0 0
9:55 pm 21:55 Clear 67 19.5 58 14.6 73 73 SE 6 9 30.06 1018 10 16.09344 0 0
10:15 pm 22:15 Clear 65 18.5 59 15 80 80 SE 3 6 30.06 1018 10 16.09344 0 0
10:35 pm 22:35 Clear 65 18.3 59 14.9 81 81 SE 5 7 30.06 1018 10 16.09344 0 0
10:55 pm 22:55 Clear 65 18.6 59 15 80 80 SE 6 9 30.06 1018 10 16.09344 0 0
11:15 pm 23:15 Clear 65 18.2 58 14.5 79 79 SSE 5 7 30.06 1018 10 16.09344 0 0
11:35 pm 23:35 Clear 64 18 58 14.5 80 80 SE 5 7 30.06 1018 10 16.09344 0 0
11:55 pm 23:55 Clear 64 17.5 58 14.3 82 82 SE 5 7 30.09 1019 10 16.09344 0 0

Powered by AerisWeather